sat.trackr.live / text

‹ back to catalog

STARLINK-32869

NORAD 62859 · 2025-022F

PAYLOAD ACTIVE UNKNOWN

§ Identity

Operator
Country
US
Launch date
2025-02-01
Launch site
AFWTR
Launch vehicle
Mass (kg)
RCS (m²)

Purposes: comms

External: N2YO · Heavens-Above · Gunter

§ Orbital elements

Epoch: 2026-05-25T02:50:08.382048Z

Period
94.11 min
Inclination
53.1567°
Eccentricity
0.0001020
Mean motion
15.30204970 rev/d
Perigee alt
474.5 km
Apogee alt
475.9 km
Semi-major
6,853.3 km
B*
7.9541e-4
RAAN
134.4542°
Arg perigee
66.6140°
Mean anomaly
293.4968°
Rev number
7,360

§ Raw data

STARLINK-328691 62859U 25022F   26145.11815257  .00023276  00000+0  79541-3 0  99972 62859  53.1567 134.4542 0001020  66.6140 293.4968 15.30204970 73606

JSON: /api/v1/satellites/62859 · /tle

For live sub-satellite position, see the globe view (requires WebGL).

§ Visibility from observer

Set your observer location to see the next 7 days of passes ≥ 10°. The values pass through the URL so the page stays shareable.

No JS? Fill the form by hand. The geolocation button needs JavaScript.